Time,TemperatureF,DewpointF,PressureIn,WindDirection,WindDirectionDegrees,WindSpeedMPH,WindSpeedGustMPH,Humidity,HourlyPrecipIn,Conditions,Clouds,dailyrainin,SolarRadiationWatts/m^2,SoftwareType,DateUTC
2013-01-21 00:00:00,19.4,5.0,30.00,West,270,12.7,12.7,53,0.00,SCT,,0.00,0.0,WeatherDisplay:10.37,2013-01-21 05:00:00,
2013-01-21 00:01:00,19.4,5.0,30.00,WNW,292,13.8,13.8,53,0.00,SCT,,0.00,0.0,WeatherDisplay:10.37,2013-01-21 05:01:00,
2013-01-21 00:02:00,19.4,5.0,30.00,WNW,292,13.8,13.8,53,0.00,SCT,,0.00,0.0,WeatherDisplay:10.37,2013-01-21 05:02:00,
2013-01-21 00:03:00,19.4,5.0,30.00,West,270,15.9,15.9,53,0.00,SCT,,0.00,0.0,WeatherDisplay:10.37,2013-01-21 05:03:00,
2013-01-21 00:08:00,19.4,5.0,30.00,West,270,17.3,17.3,53,0.00,SCT,,0.00,0.0,WeatherDisplay:10.37,2013-01-21 05:08:00,
2013-01-21 00:13:00,19.2,4.9,30.00,WSW,248,13.8,13.8,53,0.00,SCT,,0.00,0.0,WeatherDisplay:10.37,2013-01-21 05:13:00,
2013-01-21 00:18:00,19.4,5.0,30.00,West,270,15.0,15.0,53,0.00,SCT,,0.00,0.0,WeatherDisplay:10.37,2013-01-21 05:18:00,
2013-01-21 00:23:00,19.2,4.9,30.00,West,270,11.5,11.5,53,0.00,SCT,,0.00,0.0,WeatherDisplay:10.37,2013-01-21 05:23:00,
2013-01-21 00:28:00,19.2,4.9,29.97,WSW,248,15.0,15.0,53,0.00,SCT,,0.00,0.0,WeatherDisplay:10.37,2013-01-21 05:28:00,
2013-01-21 00:33:00,19.4,5.0,29.97,West,270,12.8,12.8,53,0.00,SCT,,0.00,0.0,WeatherDisplay:10.37,2013-01-21 05:33:00,
2013-01-21 00:39:00,19.4,5.0,29.97,West,270,17.3,17.3,53,0.00,SCT,,0.00,0.0,WeatherDisplay:10.37,2013-01-21 05:39:00,
2013-01-21 00:44:00,19.4,5.0,29.97,WSW,248,16.1,16.1,53,0.00,SCT,,0.00,0.0,WeatherDisplay:10.37,2013-01-21 05:44:00,
2013-01-21 00:49:00,19.4,5.0,29.97,WNW,292,15.4,15.4,53,0.00,SCT,,0.00,0.0,WeatherDisplay:10.37,2013-01-21 05:49:00,
2013-01-21 00:54:00,19.4,5.0,29.97,West,270,13.8,13.8,53,0.00,SCT,,0.00,0.0,WeatherDisplay:10.37,2013-01-21 05:54:00,
2013-01-21 00:59:00,19.2,4.9,29.97,WNW,292,12.3,12.3,53,0.00,SCT,,0.00,0.0,WeatherDisplay:10.37,2013-01-21 05:59:00,
2013-01-21 01:04:00,19.2,4.9,29.97,West,270,11.5,11.5,53,0.00,SCT,,0.00,0.0,WeatherDisplay:10.37,2013-01-21 06:04:00,
2013-01-21 01:09:00,19.2,4.9,29.97,West,270,12.7,12.7,53,0.00,SCT,,0.00,0.0,WeatherDisplay:10.37,2013-01-21 06:09:00,
2013-01-21 01:14:00,19.2,4.9,29.97,West,270,10.4,10.4,53,0.00,SCT,,0.00,0.0,WeatherDisplay:10.37,2013-01-21 06:14:00,
2013-01-21 01:19:00,19.2,4.9,29.97,West,270,10.4,10.4,53,0.00,SCT,,0.00,0.0,WeatherDisplay:10.37,2013-01-21 06:19:00,
2013-01-21 01:24:00,19.0,4.7,29.97,West,270,9.2,9.2,53,0.00,SCT,,0.00,0.0,WeatherDisplay:10.37,2013-01-21 06:24:00,
2013-01-21 01:29:00,18.9,4.5,29.97,West,270,8.1,8.1,53,0.00,SCT,,0.00,0.0,WeatherDisplay:10.37,2013-01-21 06:29:00,
2013-01-21 01:34:00,19.0,4.7,29.97,WSW,248,8.1,8.1,53,0.00,SCT,,0.00,0.0,WeatherDisplay:10.37,2013-01-21 06:34:00,
2013-01-21 01:39:00,19.0,4.7,29.97,WSW,248,9.7,9.7,53,0.00,SCT,,0.00,0.0,WeatherDisplay:10.37,2013-01-21 06:39:00,
2013-01-21 01:44:00,19.2,4.9,29.97,West,270,10.4,10.4,53,0.00,SCT,,0.00,0.0,WeatherDisplay:10.37,2013-01-21 06:44:00,
2013-01-21 01:49:00,19.2,4.9,29.97,West,270,8.5,8.5,53,0.00,SCT,,0.00,0.0,WeatherDisplay:10.37,2013-01-21 06:49:00,
2013-01-21 01:54:00,19.4,5.0,29.97,West,270,15.0,15.0,53,0.00,SCT,,0.00,0.0,WeatherDisplay:10.37,2013-01-21 06:54:00,
2013-01-21 01:59:00,19.4,5.0,29.97,WSW,248,10.4,10.4,53,0.00,SCT,,0.00,0.0,WeatherDisplay:10.37,2013-01-21 06:59:00,
2013-01-21 02:04:00,19.2,4.9,29.97,WSW,248,10.9,10.9,53,0.00,-SN,,0.00,0.0,WeatherDisplay:10.37,2013-01-21 07:04:00,
2013-01-21 02:09:00,19.2,4.9,29.97,WSW,248,12.7,12.7,53,0.00,-SN,,0.00,0.0,WeatherDisplay:10.37,2013-01-21 07:09:00,
2013-01-21 02:14:00,19.2,4.9,29.97,West,270,13.8,13.8,53,0.00,-SN,,0.00,0.0,WeatherDisplay:10.37,2013-01-21 07:14:00,
2013-01-21 02:19:00,19.2,4.9,29.97,West,270,12.7,12.7,53,0.00,-SN,,0.00,0.0,WeatherDisplay:10.37,2013-01-21 07:19:00,
2013-01-21 02:24:00,19.0,4.7,29.97,WNW,292,15.4,15.4,53,0.00,-SN,,0.00,0.0,WeatherDisplay:10.37,2013-01-21 07:24:00,
2013-01-21 02:29:00,19.0,4.7,30.00,West,270,12.8,12.8,53,0.00,-SN,,0.00,0.0,WeatherDisplay:10.37,2013-01-21 07:29:00,
2013-01-21 02:34:00,18.9,4.5,30.00,West,270,12.7,12.7,53,0.00,-SN,,0.00,0.0,WeatherDisplay:10.37,2013-01-21 07:34:00,
2013-01-21 02:39:00,18.7,4.4,30.00,West,270,12.8,12.8,53,0.00,-SN,,0.00,0.0,WeatherDisplay:10.37,2013-01-21 07:39:00,
2013-01-21 02:44:00,18.7,4.4,30.00,West,270,10.7,10.7,53,0.00,-SN,,0.00,0.0,WeatherDisplay:10.37,2013-01-21 07:44:00,
2013-01-21 02:49:00,18.7,4.4,30.00,WSW,248,10.4,10.4,53,0.00,-SN,,0.00,0.0,WeatherDisplay:10.37,2013-01-21 07:49:00,
2013-01-21 02:54:00,18.5,4.2,30.00,West,270,9.2,9.2,53,0.00,-SN,,0.00,0.0,WeatherDisplay:10.37,2013-01-21 07:54:00,
2013-01-21 02:59:00,18.5,4.2,30.00,WSW,248,8.1,8.1,53,0.00,-SN,,0.00,0.0,WeatherDisplay:10.37,2013-01-21 07:59:00,
2013-01-21 03:04:00,18.3,4.0,30.00,WNW,292,9.2,9.2,53,0.00,-SN,,0.00,0.0,WeatherDisplay:10.37,2013-01-21 08:04:00,
2013-01-21 03:09:00,18.3,4.0,30.00,West,270,11.5,11.5,53,0.00,-SN,,0.00,0.0,WeatherDisplay:10.37,2013-01-21 08:09:00,
2013-01-21 03:14:00,18.1,3.9,30.00,WSW,248,11.5,11.5,53,0.00,-SN,,0.00,0.0,WeatherDisplay:10.37,2013-01-21 08:14:00,
2013-01-21 03:19:00,18.0,3.7,30.00,West,270,8.5,8.5,53,0.00,-SN,,0.00,0.0,WeatherDisplay:10.37,2013-01-21 08:19:00,
2013-01-21 03:24:00,18.0,3.7,30.00,WSW,248,9.2,9.2,53,0.00,-SN,,0.00,0.0,WeatherDisplay:10.37,2013-01-21 08:24:00,
2013-01-21 03:29:00,18.0,3.7,29.97,West,270,10.5,10.5,53,0.00,-SN,,0.00,0.0,WeatherDisplay:10.37,2013-01-21 08:29:00,
2013-01-21 03:34:00,17.8,3.5,29.97,WSW,248,8.1,8.1,53,0.00,-SN,,0.00,0.0,WeatherDisplay:10.37,2013-01-21 08:34:00,
2013-01-21 03:39:00,17.8,3.5,29.97,WSW,248,8.1,8.1,53,0.00,-SN,,0.00,0.0,WeatherDisplay:10.37,2013-01-21 08:39:00,
2013-01-21 03:44:00,17.6,3.3,29.97,WSW,248,5.9,5.9,53,0.00,-SN,,0.00,0.0,WeatherDisplay:10.37,2013-01-21 08:44:00,
2013-01-21 03:49:00,17.6,3.3,29.97,WSW,248,5.8,5.8,53,0.00,-SN,,0.00,0.0,WeatherDisplay:10.37,2013-01-21 08:49:00,
2013-01-21 03:54:00,17.6,3.3,29.97,West,270,5.8,5.8,53,0.00,-SN,,0.00,0.0,WeatherDisplay:10.37,2013-01-21 08:54:00,
2013-01-21 03:59:00,17.4,3.2,29.97,WSW,248,5.8,5.8,53,0.00,-SN,,0.00,0.0,WeatherDisplay:10.37,2013-01-21 08:59:00,
2013-01-21 04:04:00,17.4,3.2,29.97,WSW,248,5.8,5.8,53,0.00,OVC,,0.00,0.0,WeatherDisplay:10.37,2013-01-21 09:04:00,
2013-01-21 04:09:00,17.6,3.3,29.97,WSW,248,5.8,5.8,53,0.00,OVC,,0.00,0.0,WeatherDisplay:10.37,2013-01-21 09:09:00,
2013-01-21 04:14:00,17.6,3.3,29.97,WSW,248,4.6,4.6,53,0.00,OVC,,0.00,0.0,WeatherDisplay:10.37,2013-01-21 09:14:00,
2013-01-21 04:19:00,17.8,3.5,29.97,WSW,248,9.2,9.2,53,0.00,OVC,,0.00,0.0,WeatherDisplay:10.37,2013-01-21 09:19:00,
2013-01-21 04:24:00,18.0,3.7,29.97,WSW,248,6.9,6.9,53,0.00,OVC,,0.00,0.0,WeatherDisplay:10.37,2013-01-21 09:24:00,
2013-01-21 04:29:00,18.1,3.9,29.97,WSW,248,6.4,6.4,53,0.00,OVC,,0.00,0.0,WeatherDisplay:10.37,2013-01-21 09:29:00,
2013-01-21 04:34:00,18.3,4.0,29.97,WSW,248,10.4,10.4,53,0.00,OVC,,0.00,0.0,WeatherDisplay:10.37,2013-01-21 09:34:00,
2013-01-21 04:39:00,18.3,4.0,29.97,WSW,248,9.4,9.4,53,0.00,OVC,,0.00,0.0,WeatherDisplay:10.37,2013-01-21 09:39:00,
2013-01-21 04:44:00,18.3,4.0,29.97,West,270,8.1,8.1,53,0.00,OVC,,0.00,0.0,WeatherDisplay:10.37,2013-01-21 09:44:00,
2013-01-21 04:49:00,18.5,4.2,29.97,WSW,248,8.1,8.1,53,0.00,OVC,,0.00,0.0,WeatherDisplay:10.37,2013-01-21 09:49:00,
2013-01-21 04:54:00,18.5,4.2,29.97,WSW,248,6.9,6.9,53,0.00,OVC,,0.00,0.0,WeatherDisplay:10.37,2013-01-21 09:54:00,
2013-01-21 04:59:00,18.5,4.2,29.94,SW,225,9.2,9.2,53,0.00,OVC,,0.00,0.0,WeatherDisplay:10.37,2013-01-21 09:59:00,
2013-01-21 05:04:00,18.5,4.2,29.94,WSW,248,10.4,10.4,53,0.00,OVC,,0.00,0.0,WeatherDisplay:10.37,2013-01-21 10:04:00,
2013-01-21 05:09:00,18.5,4.2,29.94,West,270,9.2,9.2,53,0.00,OVC,,0.00,0.0,WeatherDisplay:10.37,2013-01-21 10:09:00,
2013-01-21 05:14:00,18.7,4.4,29.97,WNW,292,6.2,6.2,53,0.00,OVC,,0.00,0.0,WeatherDisplay:10.37,2013-01-21 10:14:00,
2013-01-21 05:19:00,18.7,4.4,29.97,WSW,248,10.4,10.4,53,0.00,OVC,,0.00,0.0,WeatherDisplay:10.37,2013-01-21 10:19:00,
2013-01-21 05:24:00,18.7,4.4,29.97,WSW,248,9.2,9.2,53,0.00,OVC,,0.00,0.0,WeatherDisplay:10.37,2013-01-21 10:24:00,
2013-01-21 05:29:00,18.7,4.4,29.94,SSW,202,10.4,10.4,53,0.00,OVC,,0.00,0.0,WeatherDisplay:10.37,2013-01-21 10:29:00,
2013-01-21 05:34:00,18.9,4.5,29.94,WSW,248,8.1,8.1,53,0.00,OVC,,0.00,0.0,WeatherDisplay:10.37,2013-01-21 10:34:00,
2013-01-21 05:39:00,18.9,4.5,29.94,West,270,9.2,9.2,53,0.00,OVC,,0.00,0.0,WeatherDisplay:10.37,2013-01-21 10:39:00,
2013-01-21 05:44:00,18.9,4.5,29.97,WSW,248,6.9,6.9,53,0.00,OVC,,0.00,0.0,WeatherDisplay:10.37,2013-01-21 10:44:00,
2013-01-21 05:49:00,18.9,4.5,29.97,West,270,6.9,6.9,53,0.00,OVC,,0.00,0.0,WeatherDisplay:10.37,2013-01-21 10:49:00,
2013-01-21 05:54:00,19.0,4.7,29.97,WSW,248,8.7,8.7,53,0.00,OVC,,0.00,0.0,WeatherDisplay:10.37,2013-01-21 10:54:00,
2013-01-21 05:59:00,19.0,4.7,29.94,WSW,248,6.9,6.9,53,0.00,OVC,,0.00,0.0,WeatherDisplay:10.37,2013-01-21 10:59:00,
2013-01-21 06:04:00,19.0,4.7,29.94,WSW,248,6.9,6.9,53,0.00,OVC,,0.00,0.0,WeatherDisplay:10.37,2013-01-21 11:04:00,
2013-01-21 06:09:00,19.0,4.7,29.94,SW,225,9.8,9.8,53,0.00,OVC,,0.00,0.0,WeatherDisplay:10.37,2013-01-21 11:09:00,
2013-01-21 06:14:00,19.0,4.7,29.94,WSW,248,9.2,9.2,53,0.00,OVC,,0.00,0.0,WeatherDisplay:10.37,2013-01-21 11:14:00,
2013-01-21 06:19:00,19.0,4.7,29.94,West,270,8.1,8.1,53,0.00,OVC,,0.00,0.0,WeatherDisplay:10.37,2013-01-21 11:19:00,
2013-01-21 06:24:00,19.2,4.9,29.94,WSW,248,6.9,6.9,53,0.00,OVC,,0.00,0.0,WeatherDisplay:10.37,2013-01-21 11:24:00,
2013-01-21 06:29:00,19.2,4.9,29.94,West,270,8.1,8.1,53,0.00,OVC,,0.00,0.0,WeatherDisplay:10.37,2013-01-21 11:29:00,
2013-01-21 06:34:00,19.2,4.9,29.94,WSW,248,6.0,6.0,53,0.00,OVC,,0.00,0.0,WeatherDisplay:10.37,2013-01-21 11:34:00,
2013-01-21 06:39:00,19.2,4.9,29.94,WSW,248,6.9,6.9,53,0.00,OVC,,0.00,0.0,WeatherDisplay:10.37,2013-01-21 11:39:00,
2013-01-21 06:44:00,19.2,4.9,29.94,WSW,248,8.1,8.1,53,0.00,OVC,,0.00,0.0,WeatherDisplay:10.37,2013-01-21 11:44:00,
2013-01-21 06:49:00,19.2,4.9,29.94,WSW,248,8.1,8.1,53,0.00,OVC,,0.00,0.0,WeatherDisplay:10.37,2013-01-21 11:49:00,
2013-01-21 06:54:00,19.2,4.9,29.94,WSW,248,6.9,6.9,53,0.00,OVC,,0.00,0.0,WeatherDisplay:10.37,2013-01-21 11:54:00,
2013-01-21 06:59:00,19.2,4.9,29.94,SSW,202,9.2,9.2,53,0.00,OVC,,0.00,0.0,WeatherDisplay:10.37,2013-01-21 11:59:00,
2013-01-21 07:04:00,19.2,4.9,29.94,WSW,248,9.2,9.2,53,0.00,OVC,,0.00,0.0,WeatherDisplay:10.37,2013-01-21 12:04:00,
2013-01-21 07:09:00,19.2,4.9,29.94,WSW,248,8.1,8.1,53,0.00,OVC,,0.00,0.0,WeatherDisplay:10.37,2013-01-21 12:09:00,
2013-01-21 07:14:00,19.2,4.9,29.94,WSW,248,8.1,8.1,53,0.00,OVC,,0.00,0.0,WeatherDisplay:10.37,2013-01-21 12:14:00,
2013-01-21 07:19:00,19.2,4.9,29.94,WSW,248,9.2,9.2,53,0.00,OVC,,0.00,0.0,WeatherDisplay:10.37,2013-01-21 12:19:00,
2013-01-21 07:24:00,19.2,4.9,29.94,WSW,248,9.2,9.2,53,0.00,OVC,,0.00,0.0,WeatherDisplay:10.37,2013-01-21 12:24:00,
2013-01-21 07:29:00,19.2,4.9,29.94,SW,225,8.7,8.7,53,0.00,OVC,,0.00,0.0,WeatherDisplay:10.37,2013-01-21 12:29:00,
2013-01-21 07:35:00,19.4,5.0,29.94,WSW,239,6.0,7.0,53,0.00,OVC,,0.00,0.0,WeatherDisplay:10.37,2013-01-21 12:35:00,
2013-01-21 07:40:00,19.4,5.0,29.94,WSW,244,5.0,8.0,53,0.00,OVC,,0.00,0.0,WeatherDisplay:10.37,2013-01-21 12:40:00,
2013-01-21 07:44:00,19.4,5.0,29.94,WSW,249,7.0,9.0,53,0.00,OVC,,0.00,0.0,WeatherDisplay:10.37,2013-01-21 12:44:00,
2013-01-21 07:49:00,19.4,5.0,29.94,WSW,248,9.2,9.2,53,0.00,OVC,,0.00,0.0,WeatherDisplay:10.37,2013-01-21 12:49:00,
2013-01-21 07:54:00,19.4,5.0,29.94,WSW,248,8.7,8.7,53,0.00,OVC,,0.00,0.0,WeatherDisplay:10.37,2013-01-21 12:54:00,
2013-01-21 07:59:00,19.4,5.0,29.94,WSW,248,8.1,8.1,53,0.00,OVC,,0.00,0.0,WeatherDisplay:10.37,2013-01-21 12:59:00,
2013-01-21 08:04:00,19.4,5.0,29.94,WSW,248,7.8,7.8,53,0.00,OVC,,0.00,0.0,WeatherDisplay:10.37,2013-01-21 13:04:00,
2013-01-21 08:10:00,19.6,4.8,29.94,West,261,6.0,8.0,52,0.00,OVC,,0.00,0.0,WeatherDisplay:10.37,2013-01-21 13:10:00,
2013-01-21 08:15:00,19.6,4.8,29.94,WSW,252,6.0,8.0,52,0.00,OVC,,0.00,0.0,WeatherDisplay:10.37,2013-01-21 13:15:00,
2013-01-21 08:20:00,19.6,4.8,29.94,WSW,245,6.0,9.0,52,0.00,OVC,,0.00,0.0,WeatherDisplay:10.37,2013-01-21 13:20:00,
2013-01-21 08:25:00,19.6,4.8,29.94,WSW,246,6.0,9.0,52,0.00,OVC,,0.00,0.0,WeatherDisplay:10.37,2013-01-21 13:25:00,
2013-01-21 08:30:00,19.6,4.8,29.94,WSW,246,5.0,9.0,52,0.00,OVC,,0.00,0.0,WeatherDisplay:10.37,2013-01-21 13:30:00,
2013-01-21 08:35:00,19.6,4.8,29.94,WSW,238,6.0,10.0,52,0.00,OVC,,0.00,0.0,WeatherDisplay:10.37,2013-01-21 13:35:00,
2013-01-21 08:40:00,19.6,4.8,29.94,WSW,241,7.0,10.0,52,0.00,OVC,,0.00,0.0,WeatherDisplay:10.37,2013-01-21 13:40:00,
2013-01-21 08:44:00,19.7,4.9,29.91,WSW,251,7.0,9.0,52,0.00,OVC,,0.00,0.0,WeatherDisplay:10.37,2013-01-21 13:44:00,
2013-01-21 08:49:00,19.8,4.9,29.91,WSW,248,4.6,4.6,52,0.00,OVC,,0.00,0.0,WeatherDisplay:10.37,2013-01-21 13:49:00,
2013-01-21 08:54:00,19.9,5.1,29.91,SW,225,8.1,8.1,52,0.00,OVC,,0.00,0.0,WeatherDisplay:10.37,2013-01-21 13:54:00,
2013-01-21 08:59:00,19.9,5.1,29.94,SSW,202,7.6,7.6,52,0.00,OVC,,0.00,0.0,WeatherDisplay:10.37,2013-01-21 13:59:00,
2013-01-21 09:04:00,19.9,5.1,29.94,WSW,248,10.0,10.0,52,0.00,-SN,,0.00,0.0,WeatherDisplay:10.37,2013-01-21 14:04:00,
2013-01-21 09:10:00,20.1,5.3,29.94,WSW,252,6.0,8.0,52,0.00,-SN,,0.00,0.0,WeatherDisplay:10.37,2013-01-21 14:10:00,
2013-01-21 09:15:00,20.3,5.5,29.91,West,261,5.0,9.0,52,0.00,-SN,,0.00,0.0,WeatherDisplay:10.37,2013-01-21 14:15:00,
2013-01-21 09:20:00,20.3,5.5,29.91,West,263,7.0,8.0,52,0.00,-SN,,0.00,0.0,WeatherDisplay:10.37,2013-01-21 14:20:00,
2013-01-21 09:25:00,20.1,5.3,29.91,WSW,246,7.0,10.0,52,0.00,-SN,,0.00,0.0,WeatherDisplay:10.37,2013-01-21 14:25:00,
2013-01-21 09:30:00,20.1,5.3,29.94,WSW,246,8.0,10.0,52,0.00,-SN,,0.00,0.0,WeatherDisplay:10.37,2013-01-21 14:30:00,
2013-01-21 09:35:00,20.1,5.3,29.94,West,263,8.0,12.0,52,0.00,-SN,,0.00,0.0,WeatherDisplay:10.37,2013-01-21 14:35:00,
2013-01-21 09:40:00,20.3,5.5,29.94,West,260,6.0,10.0,52,0.00,-SN,,0.00,0.0,WeatherDisplay:10.37,2013-01-21 14:40:00,
2013-01-21 09:45:00,20.3,5.5,29.91,WSW,250,7.0,9.0,52,0.00,-SN,,0.00,0.0,WeatherDisplay:10.37,2013-01-21 14:45:00,
2013-01-21 09:50:00,20.3,5.5,29.91,West,260,9.0,12.0,52,0.00,-SN,,0.00,0.0,WeatherDisplay:10.37,2013-01-21 14:50:00,
2013-01-21 09:54:00,20.5,5.6,29.91,WSW,248,6.9,6.9,52,0.00,-SN,,0.00,0.0,WeatherDisplay:10.37,2013-01-21 14:54:00,
2013-01-21 09:59:00,20.7,5.8,29.94,WSW,248,6.9,6.9,52,0.00,-SN,,0.00,0.0,WeatherDisplay:10.37,2013-01-21 14:59:00,
2013-01-21 10:04:00,20.7,5.8,29.94,WSW,248,5.0,10.0,52,0.00,OVC,,0.00,0.0,WeatherDisplay:10.37,2013-01-21 15:04:00,
2013-01-21 10:10:00,21.0,6.1,29.94,WSW,245,2.0,6.0,52,0.00,OVC,,0.00,0.0,WeatherDisplay:10.37,2013-01-21 15:10:00,
2013-01-21 10:14:00,21.2,6.3,29.94,WSW,245,7.0,9.0,52,0.00,OVC,,0.00,0.0,WeatherDisplay:10.37,2013-01-21 15:14:00,
2013-01-21 10:20:00,21.2,6.3,29.94,West,265,5.0,8.0,52,0.00,OVC,,0.00,0.0,WeatherDisplay:10.37,2013-01-21 15:20:00,
2013-01-21 10:24:00,21.2,6.3,29.94,West,266,3.0,6.0,52,0.00,OVC,,0.00,0.0,WeatherDisplay:10.37,2013-01-21 15:24:00,
2013-01-21 10:30:00,21.0,6.1,29.94,WSW,253,5.0,7.0,52,0.00,OVC,,0.00,0.0,WeatherDisplay:10.37,2013-01-21 15:30:00,
2013-01-21 10:34:00,21.0,6.1,29.94,West,259,5.0,8.0,52,0.00,OVC,,0.00,0.0,WeatherDisplay:10.37,2013-01-21 15:34:00,
2013-01-21 10:39:00,21.2,6.3,29.94,West,270,4.6,4.6,52,0.00,OVC,,0.00,0.0,WeatherDisplay:10.37,2013-01-21 15:39:00,
2013-01-21 10:44:00,21.0,6.1,29.94,West,270,6.9,6.9,52,0.00,OVC,,0.00,0.0,WeatherDisplay:10.37,2013-01-21 15:44:00,
2013-01-21 10:49:00,21.2,6.3,29.94,WSW,248,8.1,8.1,52,0.00,OVC,,0.00,0.0,WeatherDisplay:10.37,2013-01-21 15:49:00,
2013-01-21 10:54:00,21.2,6.3,29.94,West,261,7.0,10.0,52,0.00,OVC,,0.00,0.0,WeatherDisplay:10.37,2013-01-21 15:54:00,
2013-01-21 10:59:00,21.2,6.3,29.94,WSW,253,7.0,9.0,52,0.00,OVC,,0.00,0.0,WeatherDisplay:10.37,2013-01-21 15:59:00,
2013-01-21 11:04:00,21.1,6.2,29.94,WSW,254,7.0,10.0,52,0.00,OVC,,0.00,0.0,WeatherDisplay:10.37,2013-01-21 16:04:00,
2013-01-21 11:10:00,21.0,6.1,29.94,WSW,252,5.0,9.0,52,0.00,OVC,,0.00,0.0,WeatherDisplay:10.37,2013-01-21 16:10:00,
2013-01-21 11:14:00,21.3,6.4,29.91,WSW,242,5.0,7.0,52,0.00,OVC,,0.00,0.0,WeatherDisplay:10.37,2013-01-21 16:14:00,
2013-01-21 11:20:00,21.6,6.6,29.91,SW,236,5.0,8.0,52,0.00,OVC,,0.00,0.0,WeatherDisplay:10.37,2013-01-21 16:20:00,
2013-01-21 11:25:00,21.4,6.5,29.91,WSW,251,5.0,9.0,52,0.00,OVC,,0.00,0.0,WeatherDisplay:10.37,2013-01-21 16:25:00,
2013-01-21 11:30:00,21.3,6.3,29.88,West,268,6.0,7.0,52,0.00,OVC,,0.00,0.0,WeatherDisplay:10.37,2013-01-21 16:30:00,
2013-01-21 11:34:00,21.4,6.5,29.88,West,281,3.0,7.0,52,0.00,OVC,,0.00,0.0,WeatherDisplay:10.37,2013-01-21 16:34:00,
2013-01-21 11:39:00,21.2,6.3,29.88,West,270,8.1,8.1,52,0.00,OVC,,0.00,0.0,WeatherDisplay:10.37,2013-01-21 16:39:00,
2013-01-21 11:44:00,21.2,6.3,29.88,WNW,292,8.7,8.7,52,0.00,OVC,,0.00,0.0,WeatherDisplay:10.37,2013-01-21 16:44:00,
2013-01-21 11:49:00,21.4,6.5,29.88,WNW,292,5.8,5.8,52,0.00,OVC,,0.00,0.0,WeatherDisplay:10.37,2013-01-21 16:49:00,
2013-01-21 11:54:00,21.6,6.6,29.88,WNW,287,5.0,6.0,52,0.00,OVC,,0.00,0.0,WeatherDisplay:10.37,2013-01-21 16:54:00,
2013-01-21 11:59:00,21.4,6.5,29.88,WSW,258,3.0,7.0,52,0.00,OVC,,0.00,0.0,WeatherDisplay:10.37,2013-01-21 16:59:00,
2013-01-21 12:04:00,21.4,6.5,29.88,WSW,249,3.0,6.0,52,0.00,OVC,,0.00,0.0,WeatherDisplay:10.37,2013-01-21 17:04:00,
2013-01-21 12:09:00,21.7,6.8,29.88,West,260,0.0,3.0,52,0.00,OVC,,0.00,0.0,WeatherDisplay:10.37,2013-01-21 17:09:00,
2013-01-21 12:14:00,22.5,7.5,29.85,West,268,1.0,3.0,52,0.00,OVC,,0.00,0.0,WeatherDisplay:10.37,2013-01-21 17:14:00,
2013-01-21 12:20:00,22.1,7.1,29.85,WSW,252,2.0,5.0,52,0.00,OVC,,0.00,0.0,WeatherDisplay:10.37,2013-01-21 17:20:00,
2013-01-21 12:24:00,22.1,7.1,29.85,WSW,250,3.0,6.0,52,0.00,OVC,,0.00,0.0,WeatherDisplay:10.37,2013-01-21 17:24:00,
2013-01-21 12:29:00,22.1,7.1,29.85,WSW,248,2.4,2.4,52,0.00,OVC,,0.00,0.0,WeatherDisplay:10.37,2013-01-21 17:29:00,
2013-01-21 12:34:00,22.5,7.5,29.85,WSW,248,0.0,0.0,52,0.00,OVC,,0.00,0.0,WeatherDisplay:10.37,2013-01-21 17:34:00,
2013-01-21 12:39:00,22.8,7.8,29.85,WSW,248,0.0,0.0,52,0.00,OVC,,0.00,0.0,WeatherDisplay:10.37,2013-01-21 17:39:00,
2013-01-21 12:44:00,23.1,8.0,29.85,WSW,248,0.0,2.0,52,0.00,OVC,,0.00,0.0,WeatherDisplay:10.37,2013-01-21 17:44:00,
2013-01-21 12:50:00,22.8,7.8,29.85,WSW,248,4.6,4.6,52,0.00,OVC,,0.00,0.0,WeatherDisplay:10.37,2013-01-21 17:50:00,
2013-01-21 12:54:00,22.3,7.4,29.85,WSW,253,3.0,6.0,52,0.00,OVC,,0.00,0.0,WeatherDisplay:10.37,2013-01-21 17:54:00,
2013-01-21 12:59:00,22.4,7.4,29.85,WSW,238,2.0,5.0,52,0.00,OVC,,0.00,0.0,WeatherDisplay:10.37,2013-01-21 17:59:00,
2013-01-21 13:04:00,22.6,7.6,29.85,SSW,209,0.0,4.0,52,0.00,OVC,,0.00,0.0,WeatherDisplay:10.37,2013-01-21 18:04:00,
2013-01-21 13:09:00,22.5,7.5,29.85,SW,216,3.0,6.0,52,0.00,OVC,,0.00,0.0,WeatherDisplay:10.37,2013-01-21 18:09:00,
2013-01-21 13:14:00,22.5,7.5,29.83,SW,222,1.0,5.0,52,0.00,OVC,,0.00,0.0,WeatherDisplay:10.37,2013-01-21 18:14:00,
2013-01-21 13:20:00,22.3,7.3,29.83,SW,225,4.6,4.6,52,0.00,OVC,,0.00,0.0,WeatherDisplay:10.37,2013-01-21 18:20:00,
2013-01-21 13:25:00,22.8,7.8,29.83,SW,225,2.3,2.3,52,0.00,OVC,,0.00,0.0,WeatherDisplay:10.37,2013-01-21 18:25:00,
2013-01-21 13:30:00,22.6,7.6,29.83,West,270,3.5,3.5,52,0.00,OVC,,0.00,0.0,WeatherDisplay:10.37,2013-01-21 18:30:00,
2013-01-21 13:35:00,22.5,7.5,29.83,WSW,248,4.6,4.6,52,0.00,OVC,,0.00,0.0,WeatherDisplay:10.37,2013-01-21 18:35:00,
2013-01-21 13:40:00,22.1,7.1,29.83,West,270,8.1,8.1,52,0.00,OVC,,0.00,0.0,WeatherDisplay:10.37,2013-01-21 18:40:00,
2013-01-21 13:45:00,21.9,7.0,29.80,West,270,5.8,5.8,52,0.00,OVC,,0.00,0.0,WeatherDisplay:10.37,2013-01-21 18:45:00,
2013-01-21 13:50:00,21.7,6.8,29.80,West,270,6.9,6.9,52,0.00,OVC,,0.00,0.0,WeatherDisplay:10.37,2013-01-21 18:50:00,
2013-01-21 13:55:00,21.9,7.0,29.80,SSW,202,4.6,4.6,52,0.00,OVC,,0.00,0.0,WeatherDisplay:10.37,2013-01-21 18:55:00,
2013-01-21 14:00:00,22.1,7.1,29.83,West,270,4.0,4.0,52,0.00,OVC,,0.00,0.0,WeatherDisplay:10.37,2013-01-21 19:00:00,
2013-01-21 14:05:00,22.3,7.3,29.83,WSW,248,5.8,5.8,52,0.00,-SN,,0.00,0.0,WeatherDisplay:10.37,2013-01-21 19:05:00,
2013-01-21 14:10:00,22.3,7.3,29.83,WSW,248,5.8,5.8,52,0.00,-SN,,0.00,0.0,WeatherDisplay:10.37,2013-01-21 19:10:00,
2013-01-21 14:15:00,22.3,7.3,29.83,WSW,248,6.2,6.2,52,0.00,-SN,,0.00,0.0,WeatherDisplay:10.37,2013-01-21 19:15:00,
2013-01-21 14:20:00,22.3,7.3,29.83,West,270,8.1,8.1,52,0.00,-SN,,0.00,0.0,WeatherDisplay:10.37,2013-01-21 19:20:00,
2013-01-21 14:25:00,22.5,7.5,29.83,West,270,8.7,8.7,52,0.00,-SN,,0.00,0.0,WeatherDisplay:10.37,2013-01-21 19:25:00,
2013-01-21 14:30:00,21.9,7.0,29.83,SW,225,15.0,15.0,52,0.00,-SN,,0.00,0.0,WeatherDisplay:10.37,2013-01-21 19:30:00,
2013-01-21 14:35:00,21.9,7.0,29.83,WNW,292,10.5,10.5,52,0.00,-SN,,0.00,0.0,WeatherDisplay:10.37,2013-01-21 19:35:00,
2013-01-21 14:40:00,21.9,7.0,29.83,WSW,248,10.4,10.4,52,0.00,-SN,,0.00,0.0,WeatherDisplay:10.37,2013-01-21 19:40:00,
2013-01-21 14:45:00,22.1,7.1,29.83,West,270,8.1,8.1,52,0.00,-SN,,0.00,0.0,WeatherDisplay:10.37,2013-01-21 19:45:00,
2013-01-21 14:50:00,22.3,7.3,29.83,WSW,248,8.1,8.1,52,0.00,-SN,,0.00,0.0,WeatherDisplay:10.37,2013-01-21 19:50:00,
2013-01-21 14:55:00,22.1,7.1,29.83,WNW,292,10.4,10.4,52,0.00,-SN,,0.00,0.0,WeatherDisplay:10.37,2013-01-21 19:55:00,
2013-01-21 15:00:00,22.1,7.1,29.83,WSW,248,10.0,10.0,52,0.00,-SN,,0.00,0.0,WeatherDisplay:10.37,2013-01-21 20:00:00,
2013-01-21 15:05:00,22.1,7.1,29.83,West,270,10.2,10.2,52,0.00,-SN,,0.00,0.0,WeatherDisplay:10.37,2013-01-21 20:05:00,
2013-01-21 15:10:00,22.1,7.1,29.83,WNW,292,11.5,11.5,52,0.00,-SN,,0.00,0.0,WeatherDisplay:10.37,2013-01-21 20:10:00,
2013-01-21 15:15:00,22.1,7.1,29.83,WNW,292,10.4,10.4,52,0.00,-SN,,0.00,0.0,WeatherDisplay:10.37,2013-01-21 20:15:00,
2013-01-21 15:20:00,22.1,7.1,29.83,West,270,8.5,8.5,52,0.00,-SN,,0.00,0.0,WeatherDisplay:10.37,2013-01-21 20:20:00,
2013-01-21 15:25:00,22.1,7.1,29.83,WSW,248,8.1,8.1,52,0.00,-SN,,0.00,0.0,WeatherDisplay:10.37,2013-01-21 20:25:00,
2013-01-21 15:30:00,22.1,7.1,29.83,WNW,292,9.2,9.2,52,0.00,-SN,,0.00,0.0,WeatherDisplay:10.37,2013-01-21 20:30:00,
2013-01-21 15:35:00,21.9,7.0,29.83,WNW,292,12.7,12.7,52,0.00,-SN,,0.00,0.0,WeatherDisplay:10.37,2013-01-21 20:35:00,
2013-01-21 15:40:00,21.6,6.6,29.83,West,270,10.4,10.4,52,0.00,-SN,,0.00,0.0,WeatherDisplay:10.37,2013-01-21 20:40:00,
2013-01-21 15:45:00,21.7,6.8,29.83,West,270,7.1,7.1,52,0.00,-SN,,0.00,0.0,WeatherDisplay:10.37,2013-01-21 20:45:00,
2013-01-21 15:50:00,21.7,6.8,29.83,WSW,248,15.0,15.0,52,0.00,-SN,,0.00,0.0,WeatherDisplay:10.37,2013-01-21 20:50:00,
2013-01-21 15:55:00,21.6,6.6,29.83,NW,315,10.4,10.4,52,0.00,-SN,,0.00,0.0,WeatherDisplay:10.37,2013-01-21 20:55:00,
2013-01-21 16:00:00,21.7,6.8,29.83,West,270,9.8,9.8,52,0.00,-SN,,0.00,0.0,WeatherDisplay:10.37,2013-01-21 21:00:00,
2013-01-21 16:05:00,21.9,7.0,29.83,West,270,7.6,7.6,52,0.00,OVC,,0.00,0.0,WeatherDisplay:10.37,2013-01-21 21:05:00,
2013-01-21 16:10:00,21.7,6.8,29.83,West,270,11.5,11.5,52,0.00,OVC,,0.00,0.0,WeatherDisplay:10.37,2013-01-21 21:10:00,
2013-01-21 16:15:00,21.9,7.0,29.83,West,270,9.7,9.7,52,0.00,OVC,,0.00,0.0,WeatherDisplay:10.37,2013-01-21 21:15:00,
2013-01-21 16:20:00,21.7,6.8,29.83,West,270,11.5,11.5,52,0.00,OVC,,0.00,0.0,WeatherDisplay:10.37,2013-01-21 21:20:00,
2013-01-21 16:25:00,21.7,6.8,29.83,West,270,17.3,17.3,52,0.00,OVC,,0.00,0.0,WeatherDisplay:10.37,2013-01-21 21:25:00,
2013-01-21 16:30:00,21.6,6.6,29.83,WNW,292,12.7,12.7,52,0.00,OVC,,0.00,0.0,WeatherDisplay:10.37,2013-01-21 21:30:00,
2013-01-21 16:35:00,21.6,6.6,29.83,WSW,248,9.2,9.2,52,0.00,OVC,,0.00,0.0,WeatherDisplay:10.37,2013-01-21 21:35:00,
2013-01-21 16:40:00,21.4,6.5,29.83,West,270,9.2,9.2,52,0.00,OVC,,0.00,0.0,WeatherDisplay:10.37,2013-01-21 21:40:00,
2013-01-21 16:45:00,21.2,6.3,29.83,West,270,11.5,11.5,52,0.00,OVC,,0.00,0.0,WeatherDisplay:10.37,2013-01-21 21:45:00,
2013-01-21 16:50:00,21.0,6.1,29.83,WNW,292,10.0,10.0,52,0.00,OVC,,0.00,0.0,WeatherDisplay:10.37,2013-01-21 21:50:00,
2013-01-21 16:55:00,21.0,6.1,29.83,WSW,248,8.7,8.7,52,0.00,OVC,,0.00,0.0,WeatherDisplay:10.37,2013-01-21 21:55:00,
2013-01-21 17:00:00,21.0,6.1,29.83,West,270,10.4,10.4,52,0.00,OVC,,0.00,0.0,WeatherDisplay:10.37,2013-01-21 22:00:00,
2013-01-21 17:05:00,20.8,6.0,29.83,West,270,9.2,9.2,52,0.00,OVC,,0.00,0.0,WeatherDisplay:10.37,2013-01-21 22:05:00,
2013-01-21 17:10:00,20.7,5.8,29.83,WNW,292,10.2,10.2,52,0.00,OVC,,0.00,0.0,WeatherDisplay:10.37,2013-01-21 22:10:00,
2013-01-21 17:15:00,20.5,5.6,29.83,WSW,248,12.7,12.7,52,0.00,OVC,,0.00,0.0,WeatherDisplay:10.37,2013-01-21 22:15:00,
2013-01-21 17:20:00,20.3,5.5,29.83,WNW,292,13.8,13.8,52,0.00,OVC,,0.00,0.0,WeatherDisplay:10.37,2013-01-21 22:20:00,
2013-01-21 17:25:00,20.3,5.5,29.83,West,270,10.4,10.4,52,0.00,OVC,,0.00,0.0,WeatherDisplay:10.37,2013-01-21 22:25:00,
2013-01-21 17:30:00,20.1,5.3,29.83,WSW,248,10.5,10.5,52,0.00,OVC,,0.00,0.0,WeatherDisplay:10.37,2013-01-21 22:30:00,
2013-01-21 17:35:00,19.9,5.1,29.83,WSW,248,8.5,8.5,52,0.00,OVC,,0.00,0.0,WeatherDisplay:10.37,2013-01-21 22:35:00,
2013-01-21 17:40:00,19.9,5.1,29.83,West,270,8.1,8.5,52,0.00,OVC,,0.00,0.0,WeatherDisplay:10.37,2013-01-21 22:40:00,
2013-01-21 17:45:00,19.9,5.1,29.83,WSW,248,9.2,9.2,52,0.00,OVC,,0.00,0.0,WeatherDisplay:10.37,2013-01-21 22:45:00,
2013-01-21 17:50:00,19.8,4.9,29.83,WSW,248,7.8,7.8,52,0.00,OVC,,0.00,0.0,WeatherDisplay:10.37,2013-01-21 22:50:00,
2013-01-21 17:55:00,19.8,4.9,29.83,WSW,248,6.9,6.9,52,0.00,OVC,,0.00,0.0,WeatherDisplay:10.37,2013-01-21 22:55:00,
2013-01-21 18:00:00,19.8,4.9,29.83,WSW,248,5.8,5.8,52,0.00,OVC,,0.00,0.0,WeatherDisplay:10.37,2013-01-21 23:00:00,
2013-01-21 18:05:00,19.6,4.8,29.83,WSW,248,6.9,6.9,52,0.00,BKN,,0.00,0.0,WeatherDisplay:10.37,2013-01-21 23:05:00,
2013-01-21 18:10:00,19.6,4.8,29.83,SW,225,5.9,5.9,52,0.00,BKN,,0.00,0.0,WeatherDisplay:10.37,2013-01-21 23:10:00,
2013-01-21 18:15:00,19.6,4.8,29.80,WSW,248,8.1,8.1,52,0.00,BKN,,0.00,0.0,WeatherDisplay:10.37,2013-01-21 23:15:00,
2013-01-21 18:20:00,19.6,4.8,29.80,WSW,248,5.9,5.9,52,0.00,BKN,,0.00,0.0,WeatherDisplay:10.37,2013-01-21 23:20:00,
2013-01-21 18:25:00,19.8,4.9,29.80,WSW,248,6.9,6.9,52,0.00,BKN,,0.00,0.0,WeatherDisplay:10.37,2013-01-21 23:25:00,
2013-01-21 18:30:00,19.8,4.9,29.83,WSW,248,8.1,8.1,52,0.00,BKN,,0.00,0.0,WeatherDisplay:10.37,2013-01-21 23:30:00,
2013-01-21 18:35:00,19.9,5.1,29.83,WSW,248,9.2,9.2,52,0.00,BKN,,0.00,0.0,WeatherDisplay:10.37,2013-01-21 23:35:00,
2013-01-21 18:40:00,19.9,5.1,29.83,SSW,202,8.1,8.1,52,0.00,BKN,,0.00,0.0,WeatherDisplay:10.37,2013-01-21 23:40:00,
2013-01-21 18:45:00,19.9,5.1,29.83,WNW,292,10.4,10.4,52,0.00,BKN,,0.00,0.0,WeatherDisplay:10.37,2013-01-21 23:45:00,
2013-01-21 18:50:00,19.9,5.1,29.83,WSW,248,9.2,9.2,52,0.00,BKN,,0.00,0.0,WeatherDisplay:10.37,2013-01-21 23:50:00,
2013-01-21 18:55:00,19.8,4.9,29.83,West,270,10.5,10.5,52,0.00,BKN,,0.00,0.0,WeatherDisplay:10.37,2013-01-21 23:55:00,
2013-01-21 19:00:00,19.6,4.8,29.83,WSW,248,9.2,9.2,52,0.00,BKN,,0.00,0.0,WeatherDisplay:10.37,2013-01-22 00:00:00,
2013-01-21 19:05:00,19.4,5.0,29.83,West,270,6.0,6.0,53,0.00,BKN,,0.00,0.0,WeatherDisplay:10.37,2013-01-22 00:05:00,
2013-01-21 19:10:00,19.2,4.9,29.83,SW,225,8.1,8.1,53,0.00,BKN,,0.00,0.0,WeatherDisplay:10.37,2013-01-22 00:10:00,
2013-01-21 19:15:00,19.0,4.7,29.83,WSW,248,6.0,6.0,53,0.00,BKN,,0.00,0.0,WeatherDisplay:10.37,2013-01-22 00:15:00,
2013-01-21 19:20:00,18.9,4.5,29.83,West,270,6.9,6.9,53,0.00,BKN,,0.00,0.0,WeatherDisplay:10.37,2013-01-22 00:20:00,
2013-01-21 19:25:00,18.9,4.5,29.83,WSW,248,8.1,8.1,53,0.00,BKN,,0.00,0.0,WeatherDisplay:10.37,2013-01-22 00:25:00,
2013-01-21 19:30:00,18.9,4.5,29.83,WSW,248,8.1,8.1,53,0.00,BKN,,0.00,0.0,WeatherDisplay:10.37,2013-01-22 00:30:00,
2013-01-21 19:35:00,18.7,4.4,29.83,WSW,248,6.4,6.4,53,0.00,BKN,,0.00,0.0,WeatherDisplay:10.37,2013-01-22 00:35:00,
2013-01-21 19:40:00,18.7,4.4,29.83,SW,225,6.9,6.9,53,0.00,BKN,,0.00,0.0,WeatherDisplay:10.37,2013-01-22 00:40:00,
2013-01-21 19:45:00,18.7,4.4,29.80,SSW,202,6.4,6.4,53,0.00,BKN,,0.00,0.0,WeatherDisplay:10.37,2013-01-22 00:45:00,
2013-01-21 19:50:00,18.5,4.2,29.80,WSW,248,6.9,6.9,53,0.00,BKN,,0.00,0.0,WeatherDisplay:10.37,2013-01-22 00:50:00,
2013-01-21 19:55:00,18.5,5.0,29.80,WSW,248,5.8,5.8,55,0.00,BKN,,0.00,0.0,WeatherDisplay:10.37,2013-01-22 00:55:00,
2013-01-21 20:00:00,18.3,4.8,29.80,WSW,248,5.9,5.9,55,0.00,BKN,,0.00,0.0,WeatherDisplay:10.37,2013-01-22 01:00:00,
2013-01-21 20:05:00,18.3,4.8,29.80,WSW,248,6.9,6.9,55,0.00,SCT,,0.00,0.0,WeatherDisplay:10.37,2013-01-22 01:05:00,
2013-01-21 20:10:00,18.3,4.8,29.80,WSW,248,6.9,6.9,55,0.00,SCT,,0.00,0.0,WeatherDisplay:10.37,2013-01-22 01:10:00,
2013-01-21 20:15:00,18.3,4.8,29.83,WSW,248,5.8,5.8,55,0.00,SCT,,0.00,0.0,WeatherDisplay:10.37,2013-01-22 01:15:00,
2013-01-21 20:20:00,18.3,4.8,29.83,WSW,248,7.4,7.4,55,0.00,SCT,,0.00,0.0,WeatherDisplay:10.37,2013-01-22 01:20:00,
2013-01-21 20:25:00,18.3,4.8,29.83,WSW,248,6.9,6.9,55,0.00,SCT,,0.00,0.0,WeatherDisplay:10.37,2013-01-22 01:25:00,
2013-01-21 20:30:00,18.1,4.7,29.83,West,270,8.1,8.1,55,0.00,SCT,,0.00,0.0,WeatherDisplay:10.37,2013-01-22 01:30:00,
2013-01-21 20:35:00,18.3,4.8,29.83,West,270,8.1,8.1,55,0.00,SCT,,0.00,0.0,WeatherDisplay:10.37,2013-01-22 01:35:00,
2013-01-21 20:40:00,18.3,4.0,29.83,West,270,6.9,6.9,53,0.00,SCT,,0.00,0.0,WeatherDisplay:10.37,2013-01-22 01:40:00,
2013-01-21 20:45:00,18.3,4.0,29.83,West,270,10.2,10.2,53,0.00,SCT,,0.00,0.0,WeatherDisplay:10.37,2013-01-22 01:45:00,
2013-01-21 20:50:00,18.3,4.0,29.83,West,270,8.1,8.1,53,0.00,SCT,,0.00,0.0,WeatherDisplay:10.37,2013-01-22 01:50:00,
2013-01-21 20:55:00,18.3,4.0,29.83,WSW,248,8.1,8.1,53,0.00,SCT,,0.00,0.0,WeatherDisplay:10.37,2013-01-22 01:55:00,
2013-01-21 21:00:00,18.1,3.9,29.83,WSW,248,8.1,8.1,53,0.00,SCT,,0.00,0.0,WeatherDisplay:10.37,2013-01-22 02:00:00,
2013-01-21 21:05:00,18.1,4.7,29.83,WSW,248,11.5,11.5,55,0.00,SCT,,0.00,0.0,WeatherDisplay:10.37,2013-01-22 02:05:00,
2013-01-21 21:10:00,18.1,3.9,29.83,WSW,248,12.7,12.7,53,0.00,SCT,,0.00,0.0,WeatherDisplay:10.37,2013-01-22 02:10:00,
2013-01-21 21:15:00,18.1,3.9,29.83,WSW,248,11.5,11.5,53,0.00,SCT,,0.00,0.0,WeatherDisplay:10.37,2013-01-22 02:15:00,
2013-01-21 21:20:00,18.0,3.7,29.83,WNW,292,16.8,16.8,53,0.00,SCT,,0.00,0.0,WeatherDisplay:10.37,2013-01-22 02:20:00,
2013-01-21 21:25:00,18.1,3.9,29.83,West,270,13.8,13.8,53,0.00,SCT,,0.00,0.0,WeatherDisplay:10.37,2013-01-22 02:25:00,
2013-01-21 21:30:00,18.0,3.7,29.80,West,270,13.8,13.8,53,0.00,SCT,,0.00,0.0,WeatherDisplay:10.37,2013-01-22 02:30:00,
2013-01-21 21:35:00,17.8,3.5,29.80,West,270,18.4,18.4,53,0.00,SCT,,0.00,0.0,WeatherDisplay:10.37,2013-01-22 02:35:00,
2013-01-21 21:40:00,17.8,3.5,29.80,WSW,248,17.8,17.8,53,0.00,SCT,,0.00,0.0,WeatherDisplay:10.37,2013-01-22 02:40:00,
2013-01-21 21:45:00,17.6,3.3,29.80,WNW,292,17.3,17.3,53,0.00,SCT,,0.00,0.0,WeatherDisplay:10.37,2013-01-22 02:45:00,
2013-01-21 21:50:00,17.4,3.2,29.80,West,270,12.7,12.7,53,0.00,SCT,,0.00,0.0,WeatherDisplay:10.37,2013-01-22 02:50:00,
2013-01-21 21:55:00,17.4,3.2,29.80,WNW,292,16.1,16.1,53,0.00,SCT,,0.00,0.0,WeatherDisplay:10.37,2013-01-22 02:55:00,
2013-01-21 22:00:00,17.4,3.2,29.83,West,270,16.1,16.1,53,0.00,SCT,,0.00,0.0,WeatherDisplay:10.37,2013-01-22 03:00:00,
2013-01-21 22:05:00,17.2,3.0,29.83,West,270,14.0,14.0,53,0.00,SCT,,0.00,0.0,WeatherDisplay:10.37,2013-01-22 03:05:00,
2013-01-21 22:11:00,17.1,2.8,29.83,NW,315,13.8,13.8,53,0.00,SCT,,0.00,0.0,WeatherDisplay:10.37,2013-01-22 03:11:00,
2013-01-21 22:16:00,17.1,2.8,29.83,WNW,292,15.0,15.0,53,0.00,SCT,,0.00,0.0,WeatherDisplay:10.37,2013-01-22 03:16:00,
2013-01-21 22:21:00,17.1,2.8,29.83,WNW,292,18.4,18.4,53,0.00,SCT,,0.00,0.0,WeatherDisplay:10.37,2013-01-22 03:21:00,
2013-01-21 22:26:00,16.9,2.7,29.83,WNW,292,12.5,12.5,53,0.00,SCT,,0.00,0.0,WeatherDisplay:10.37,2013-01-22 03:26:00,
2013-01-21 22:31:00,16.9,2.7,29.83,WNW,292,12.7,12.7,53,0.00,SCT,,0.00,0.0,WeatherDisplay:10.37,2013-01-22 03:31:00,
2013-01-21 22:36:00,16.7,2.5,29.83,West,270,10.4,10.4,53,0.00,SCT,,0.00,0.0,WeatherDisplay:10.37,2013-01-22 03:36:00,
2013-01-21 22:41:00,16.5,2.3,29.83,WNW,292,12.7,12.7,53,0.00,SCT,,0.00,0.0,WeatherDisplay:10.37,2013-01-22 03:41:00,
2013-01-21 22:46:00,16.3,2.2,29.83,West,270,12.3,12.3,53,0.00,SCT,,0.00,0.0,WeatherDisplay:10.37,2013-01-22 03:46:00,
2013-01-21 22:51:00,16.3,2.2,29.83,West,270,16.1,16.1,53,0.00,SCT,,0.00,0.0,WeatherDisplay:10.37,2013-01-22 03:51:00,
2013-01-21 22:56:00,16.2,2.0,29.83,NW,315,15.0,15.0,53,0.00,SCT,,0.00,0.0,WeatherDisplay:10.37,2013-01-22 03:56:00,
2013-01-21 23:01:00,16.0,1.8,29.83,West,270,11.5,11.5,53,0.00,SCT,,0.00,0.0,WeatherDisplay:10.37,2013-01-22 04:01:00,
2013-01-21 23:06:00,16.0,1.8,29.83,WNW,292,12.1,12.1,53,0.00,BKN,,0.00,0.0,WeatherDisplay:10.37,2013-01-22 04:06:00,
2013-01-21 23:11:00,16.0,1.8,29.83,WNW,292,12.8,12.8,53,0.00,BKN,,0.00,0.0,WeatherDisplay:10.37,2013-01-22 04:11:00,
2013-01-21 23:16:00,16.0,1.8,29.83,West,270,15.0,15.0,53,0.00,BKN,,0.00,0.0,WeatherDisplay:10.37,2013-01-22 04:16:00,
2013-01-21 23:21:00,15.8,2.1,29.83,West,270,15.0,15.0,54,0.00,BKN,,0.00,0.0,WeatherDisplay:10.37,2013-01-22 04:21:00,
2013-01-21 23:26:00,15.4,1.7,29.85,WNW,292,12.1,12.1,54,0.00,BKN,,0.00,0.0,WeatherDisplay:10.37,2013-01-22 04:26:00,
2013-01-21 23:31:00,15.3,1.6,29.85,West,270,13.8,13.8,54,0.00,BKN,,0.00,0.0,WeatherDisplay:10.37,2013-01-22 04:31:00,
2013-01-21 23:36:00,15.3,1.6,29.85,WSW,248,19.6,19.6,54,0.00,BKN,,0.00,0.0,WeatherDisplay:10.37,2013-01-22 04:36:00,
2013-01-21 23:41:00,15.1,1.4,29.85,West,270,14.7,14.7,54,0.00,BKN,,0.00,0.0,WeatherDisplay:10.37,2013-01-22 04:41:00,
2013-01-21 23:46:00,15.1,1.4,29.85,West,270,15.0,15.0,54,0.00,BKN,,0.00,0.0,WeatherDisplay:10.37,2013-01-22 04:46:00,
2013-01-21 23:51:00,14.9,1.2,29.85,West,270,10.4,10.4,54,0.00,BKN,,0.00,0.0,WeatherDisplay:10.37,2013-01-22 04:51:00,
2013-01-21 23:56:00,14.7,1.1,29.85,West,270,9.2,9.2,54,0.00,BKN,,0.00,0.0,WeatherDisplay:10.37,2013-01-22 04:56:00,